FW9692 Weather Reports


Display with metric or nautical units.
time (UTC)temp
F
wind
direction
speed
MPH
gust
MPH
rain 1hr
in
rain 24hr
in
rain mn
in
humidity
%
barometer
mb
20260904023034 89 95 17.0 33.0 0.00 0.00 0.00 38 996.9
20260904021520 93 140 4.0 7.0 0.00 0.00 0.00 30 996.3
20260904020026 92 237 2.0 5.0 0.00 0.00 0.00 30 996.1
20260904014532 92 267 6.0 9.0 0.00 0.00 0.00 31 995.9
20260904013049 92 252 5.0 8.0 0.00 0.00 0.00 32 995.8
20260904011606 92 265 3.0 4.0 0.00 0.00 0.00 33 995.6
20260904010059 92 317 3.0 6.0 0.00 0.00 0.00 32 995.6
20260904004548 93 296 4.0 9.0 0.00 0.00 0.00 33 995.5
20260904003054 94 268 7.0 12.0 0.00 0.00 0.00 31 995.6
20260904001531 95 344 5.0 9.0 0.00 0.00 0.00 29 995.5
20260904000039 96 341 7.0 10.0 0.00 0.00 0.00 29 995.3
20260903234539 97 18 4.0 10.0 0.00 0.00 0.00 27 995.3
20260903231559 97 311 9.0 14.0 0.00 0.00 0.00 28 995.5
20260903230057 97 146 7.0 16.0 0.00 0.00 0.00 28 995.4
20260903224558 96 182 11.0 15.0 0.00 0.00 0.00 28 995.6
20260903223035 94 167 19.0 25.0 0.00 0.00 0.00 30 995.7
20260903221508 94 149 25.0 35.0 0.00 0.00 0.00 31 995.6
20260903220009 97 212 9.0 15.0 0.00 0.00 0.00 27 995.7
20260903214508 96 279 12.0 18.0 0.00 0.00 0.00 28 995.6
20260903213033 94 306 16.0 21.0 0.00 0.00 0.00 30 995.8
20260903211519 94 296 18.0 27.0 0.00 0.00 0.00 30 996.1
20260903210014 97 304 11.0 25.0 0.00 0.00 0.00 28 996.1
20260903204519 98 205 10.0 17.0 0.00 0.00 0.00 25 996.1
20260903203011 97 221 7.0 13.0 0.00 0.00 0.00 25 996.2
20260903201502 97 334 12.0 14.0 0.00 0.00 0.00 27 996.3
20260903200101 98 232 6.0 15.0 0.00 0.00 0.00 26 996.6
20260903194559 98 146 7.0 12.0 0.00 0.00 0.00 25 996.8
20260903191600 97 252 11.0 14.0 0.00 0.00 0.00 27 997.3
20260903190051 97 46 4.0 10.0 0.00 0.00 0.00 27 997.7
20260903184551 96 211 6.0 20.0 0.00 0.00 0.00 28 998.0
20260903181556 95 324 5.0 19.0 0.00 0.00 0.00 29 998.7
20260903180056 95 234 8.0 18.0 0.00 0.00 0.00 30 999.1
20260903174540 94 281 8.0 15.0 0.00 0.00 0.00 30 999.1
20260903171558 93 241 14.0 20.0 0.00 0.00 0.00 31 999.4
20260903170055 93 237 11.0 20.0 0.00 0.00 0.00 32 999.5
20260903164551 92 262 13.0 23.0 0.00 0.00 0.00 32 999.5
20260903161504 91 270 11.0 21.0 0.00 0.00 0.00 35 999.6
20260903160101 90 233 14.0 19.0 0.00 0.00 0.00 36 999.6
20260903154600 89 225 11.0 18.0 0.00 0.00 0.00 37 999.6
20260903151551 88 238 12.0 19.0 0.00 0.00 0.00 38 999.7
20260903150049 87 247 15.0 19.0 0.00 0.00 0.00 39 999.7
20260903144605 86 254 12.0 16.0 0.00 0.00 0.00 40 999.9
20260903141548 85 238 11.0 16.0 0.00 0.00 0.00 42 999.9
20260903140045 83 234 12.0 15.0 0.00 0.00 0.00 44 999.9
20260903134536 82 238 13.0 15.0 0.00 0.00 0.00 46 999.9
20260903131534 79 255 12.0 15.0 0.00 0.00 0.00 49 999.6
20260903130032 79 252 12.0 14.0 0.00 0.00 0.00 48 999.6
20260903124530 80 254 14.0 17.0 0.00 0.00 0.00 48 999.3
20260903121533 78 257 12.0 14.0 0.00 0.00 0.00 48 999.1
20260903120039 79 269 12.0 14.0 0.00 0.00 0.00 47 999.1
20260903114525 79 270 10.0 13.0 0.00 0.00 0.00 47 998.8
20260903111531 80 254 11.0 12.0 0.00 0.00 0.00 48 998.7
20260903110031 78 277 8.0 12.0 0.00 0.00 0.00 49 998.8
20260903104549 78 226 6.0 8.0 0.00 0.00 0.00 50 998.7
20260903101526 77 209 7.0 10.0 0.00 0.00 0.00 50 998.6
20260903100043 80 200 11.0 13.0 0.00 0.00 0.00 48 998.7
20260903094547 81 198 9.0 12.0 0.00 0.00 0.00 47 998.8
20260903091516 81 203 9.0 11.0 0.00 0.00 0.00 45 998.8
20260903090009 81 209 10.0 11.0 0.00 0.00 0.00 45 998.9
20260903084508 82 207 9.0 12.0 0.00 0.00 0.00 44 998.8
20260903081507 82 200 10.0 11.0 0.00 0.00 0.00 43 999.0
20260903080007 83 198 9.0 11.0 0.00 0.00 0.00 42 999.2
20260903074506 83 186 8.0 10.0 0.00 0.00 0.00 42 999.2
20260903071507 85 216 6.0 8.0 0.00 0.00 0.00 40 999.2
20260903070004 84 195 5.0 7.0 0.00 0.00 0.00 41 999.2
20260903064502 85 168 9.0 13.0 0.00 0.00 0.00 41 999.3
20260903061506 84 216 7.0 9.0 0.00 0.00 0.00 42 999.3
20260903060002 86 193 8.0 10.0 0.00 0.00 0.00 40 999.5
20260903054502 86 189 10.0 12.0 0.00 0.00 0.00 40 999.5
20260903051502 85 198 9.0 11.0 0.00 0.00 0.00 42 999.5
20260903050100 85 208 9.0 10.0 0.00 0.00 0.00 42 999.5
20260903044601 85 219 8.0 10.0 0.00 0.00 0.00 43 999.5
20260903041605 87 214 8.0 11.0 0.00 0.00 0.00 37 999.6
20260903040058 87 210 8.0 10.0 0.00 0.00 0.00 38 999.5
20260903034556 87 207 9.0 10.0 0.00 0.00 0.00 37 999.4
20260903031559 88 214 9.0 12.0 0.00 0.00 0.00 37 999.2
20260903030058 89 209 12.0 17.0 0.00 0.00 0.00 36 999.0
20260903024604 89 193 13.0 17.0 0.00 0.02 0.00 39 998.8